Location: Eaton
(41.3139°N, 82.0207°W)
Time: 00:14:41
(UTC+00:00)

Cosmos 2058 - Pass Details

Date: 17 June 2021
Orbit: 563 x 582 km, 82.5° (Epoch: 02 August)

Event Time Altitude Azimuth Distance (km) Brightness Sun altitude
Exits shadow 06:40:49 51° 106° (ESE) 714 3.3 -23.2°
Maximum altitude 06:41:01 52° 94° (E) 708 3.3 -23.2°
Drops below altitude 10° 06:45:00 10° 18° (NNE) 1,863 6.6 -22.9°
Sets 06:47:13 0° 14° (NNE) 2,765 7.9 -22.8°
